ONEWEB-0705, 61610

Orbit data source: Space-Track

ONEWEB-0705, 61610 is a payload satellite owned by Eut. One Web (UK) in LEO that was launched on Sun, 20 Oct 2024 UTC via an FALCON 9 launch vehicle from the Air Force Western Test Range (AFWTR). Payload-class satellites include a variety of spacecraft equipped with specific instruments for various scientific and technological missions. These include communications satellites like Starlink; space stations such as the ISS; scientific satellites like the Hubble; Earth observation satellites from companies like Planet Labs, Umbra, and HawkEye 360; GPS; miniature CubeSats for education and research; and military/defense satellites.

Loading next visibility...
Identifier
61610, 2024-188S
Orbit
LEO
Country
Flag of UKUK
Related business
Manufacturer
One Web
Mission
Operational Commercial Communications
Bus & Motor
ARROW, Unknown motor
Mass
148 kg wet, ~140 kg dry
Launch date (UTC)
2024-10-20 (2 years ago)
Launch vehicle
FALCON 9
Launch site
Air Force Western Test Range (AFWTR)
Object type
Payload
Rocket body
Debris
Shape & HBR
Trap Box + 2 Pan, 6.7 m
Radar Cross Section
3.464 m², Large (>1 m²)

Expand to show TLE details & history
Last TLE update: 9 hours ago

TLE from 9 hours ago
0 ONEWEB-0705
1 61610U 24188S   26176.55008256 -.00001318  00000-0 -38140-2 0  9993
2 61610  87.8832  34.5954 0002826  90.8678 269.2773 13.10365963 76554
Epoch: 2026-06-25T13:12Z
TLE epoch observation values (Epoch: 2026-06-25T13:12:07.133Z)
Latitude
-0.00002°
Longitude
-77.12566°
Altitude
1,224.659 km
Speed
7.242 km/s
True Right ascension
02h 18m 22s
True Declination
0° 00' 00"
Sunlit
Object was in daylight at epoch
Visualization orbit readout
Latitude
Unknown
Longitude
Unknown
Altitude
Unknown
Speed
Unknown
Apparent Right ascension
Unknown
Apparent Declination
Unknown
Sunlit
N/A
Visualization observer readout
Local Sidereal Time
09:00:36
Azimuth
Unknown
Elevation
Unknown
Doppler factor
Unknown
Orbital elements
Apogee altitude
1,221.01 km
Perigee altitude
1,216.717 km
Semi-major axis
7,597 km
Eccentricity
0.00028
Inclination
87.8832°
RAAN
34.5954°
Arg. of periapsis
90.8678°
True anomaly
269.24492°
Mean anomaly
269.2773°
Eccentric anomaly
269.26111°
Mean motion
3.27778 °/min
Orbital period
109.83 mins
BSTAR
-0.003814
Loading maneuver chart data...
Computing Atmospheric mass density...
Loading historical data...
Loading historical data...
Loading historical data...
Loading historical data...
Loading historical data...
Loading historical data...
Loading historical data...

Documentation

Showing up to 5 results
|